Weather History for Bloomington, IN

Change the Weather History Date:

Wednesday, April 23, 2014

  Actual Average Record
Temperature  
Mean Temperature 50 °F 56 °F  
Max Temperature 63 °F 67 °F 82 °F (2008)
Min Temperature 36 °F 45 °F 27 °F (2003)
Degree Days  
Heating Degree Days 15 10  
Month to date heating degree days 283 298  
Since 1 July heating degree days 5682 5054  
Cooling Degree Days 0 1  
Month to date cooling degree days 6 15  
Year to date cooling degree days 6 18  
Moisture  
Dew Point 28 °F    
Average Humidity 47    
Maximum Humidity 70    
Minimum Humidity 23    
Precipitation  
Precipitation 0.00 in 0.17 in 0.49 in (2011)
Month to date precipitation 5.75 3.53  
Year to date precipitation 12.34 13.48  
Sea Level Pressure  
Sea Level Pressure 30.07 in    
Wind  
Wind Speed 7 mph (NNE)    
Max Wind Speed 14 mph    
Max Gust Speed 20 mph    
Visibility 10 miles    
Events      
T = Trace of Precipitation, MM = Missing Value Source: NWS Daily Summary

Daily Weather History Graph

Daily Weather History Graph

Search for Another Location

Airport:

Trip Planner

Search our weather history database for the weather conditions in past years. The results will help you decide how hot, cold, wet, or windy it might be!

Date:

Astronomy

Apr. 23, 2014 Rise Set
Actual Time 6:58 AM EDT 8:31 PM EDT
Civil Twilight 6:30 AM EDT 9:00 PM EDT
Nautical Twilight 5:56 AM EDT 9:34 PM EDT
Astronomical Twilight 5:20 AM EDT 10:10 PM EDT
Moon 3:27 AM EDT 2:42 PM EDT
Length of Visible Light 14h 29m
Length of Day
13h 33m
Waning Crescent, 35% of the Moon is Illuminated
Apr 23
Waning Crescent
Apr 29
New
May 6
First Quarter
May 14
Full
May 21
Last Quarter

Hourly Weather History & Observations

Time (EDT) Temp. Windchill Dew Point Humidity Pressure Visibility Wind Dir Wind Speed Gust Speed Precip Events Conditions
12:53 AM 48.0 °F - 32.0 °F 54% 30.00 in 10.0 mi ENE 5.8 mph - N/A   Clear
1:53 AM 46.0 °F 43.1 °F 30.9 °F 56% 30.02 in 10.0 mi NE 5.8 mph - N/A   Clear
2:53 AM 43.0 °F 39.5 °F 32.0 °F 65% 30.03 in 10.0 mi North 5.8 mph - N/A   Clear
4:53 AM 39.9 °F 35.1 °F 30.9 °F 70% 30.05 in 10.0 mi North 6.9 mph - N/A   Clear
5:53 AM 39.0 °F 33.4 °F 28.9 °F 67% 30.07 in 10.0 mi North 8.1 mph - N/A   Clear
6:53 AM 37.9 °F 35.5 °F 28.0 °F 68% 30.08 in 10.0 mi NNW 3.5 mph - N/A   Clear
7:53 AM 37.9 °F 32.7 °F 28.9 °F 70% 30.11 in 10.0 mi North 6.9 mph - N/A   Clear
8:53 AM 42.1 °F 36.1 °F 28.0 °F 58% 30.12 in 10.0 mi NNE 10.4 mph - N/A   Clear
9:53 AM 46.0 °F 42.5 °F 28.0 °F 50% 30.13 in 10.0 mi NNE 6.9 mph - N/A   Clear
10:53 AM 50.0 °F - 27.0 °F 41% 30.12 in 10.0 mi NE 12.7 mph - N/A   Clear
11:53 AM 52.0 °F - 27.0 °F 38% 30.13 in 10.0 mi North 4.6 mph - N/A   Clear
12:53 PM 55.9 °F - 26.1 °F 32% 30.12 in 10.0 mi NNE 6.9 mph - N/A   Clear
1:53 PM 57.9 °F - 27.0 °F 31% 30.10 in 10.0 mi North 8.1 mph - N/A   Clear
2:53 PM 60.1 °F - 25.0 °F 26% 30.08 in 10.0 mi North 8.1 mph - N/A   Clear
3:53 PM 61.0 °F - 24.1 °F 24% 30.07 in 10.0 mi Variable 4.6 mph - N/A   Clear
4:53 PM 63.0 °F - 26.1 °F 25% 30.06 in 10.0 mi NNE 8.1 mph - N/A   Clear
5:53 PM 62.1 °F - 25.0 °F 24% 30.04 in 10.0 mi North 5.8 mph - N/A   Clear
6:53 PM 61.0 °F - 25.0 °F 25% 30.05 in 10.0 mi North 5.8 mph - N/A   Clear
7:53 PM 57.0 °F - 26.1 °F 30% 30.05 in 10.0 mi NE 6.9 mph - N/A   Clear
8:53 PM 55.0 °F - 27.0 °F 34% 30.05 in 10.0 mi NE 4.6 mph - N/A   Clear
9:53 PM 55.0 °F - 30.0 °F 38% 30.07 in 10.0 mi ENE 4.6 mph - N/A   Clear
10:53 PM 55.0 °F - 30.0 °F 38% 30.07 in 10.0 mi East 5.8 mph - N/A   Partly Cloudy
11:53 PM 55.0 °F - 30.0 °F 38% 30.02 in 10.0 mi East 9.2 mph - N/A   Overcast